Weather History for K2G4 - April, 2013

Change the Weather History Date:

Sunday, April 21, 2013

  Actual Average (KMGW) Record (KMGW)
Temperature  
Mean Temperature 36 °F 55 °F  
Max Temperature 46 °F 66 °F 88 °F (1954)
Min Temperature 26 °F 43 °F 28 °F (1956)
Degree Days  
Heating Degree Days 29 11  
Month to date heating degree days 294  
Since 1 July heating degree days 4895  
Cooling Degree Days 0 1  
Month to date cooling degree days 3  
Year to date cooling degree days 5  
Moisture  
Dew Point 18 °F    
Average Humidity 53    
Maximum Humidity 80    
Minimum Humidity 27    
Precipitation  
Precipitation 0.00 in 0.12 in 1.26 in (2002)
Month to date precipitation 2.45  
Year to date precipitation 11.51  
Sea Level Pressure  
Sea Level Pressure 30.42 in    
Wind  
Wind Speed 5 mph (ENE)    
Max Wind Speed 20 mph    
Max Gust Speed 24 mph    
Visibility 10 miles    
Events      
T = Trace of Precipitation, MM = Missing Value Source: NWS Daily Summary

Daily Weather History Graph

Daily Weather History Graph

Search for Another Location

Airport or City:

Trip Planner

Search our weather history database for the weather conditions in past years. The results will help you decide how hot, cold, wet, or windy it might be!

Date:

Astronomy

Apr. 21, 2013 Rise Set
Actual Time 6:31 AM EDT 8:01 PM EDT
Civil Twilight 6:02 AM EDT 8:29 PM EDT
Nautical Twilight 5:28 AM EDT 9:04 PM EDT
Astronomical Twilight 4:52 AM EDT 9:40 PM EDT
Moon 3:46 PM EDT (4/21) 3:51 AM EDT (4/21)
Length of Visible Light 14h 27m
Length of Day
13h 30m
Waxing Gibbous, 79% of the Moon is Illuminated
Apr 21
Waxing Gibbous
Apr 25
Full
May 2
Last Quarter
May 9
New
May 18
First Quarter

Hourly Weather History & Observations

Time (EDT) Temp. Windchill Dew Point Humidity Pressure Visibility Wind Dir Wind Speed Gust Speed Precip Events Conditions
12:10 AM 30.2 °F 25.4 °F 21.2 °F 69% 30.31 in 10.0 mi NNW 4.6 mph - N/A   Clear
12:30 AM 30.2 °F 26.7 °F 21.2 °F 69% 30.32 in 10.0 mi NW 3.5 mph - N/A   Clear
12:50 AM 30.2 °F - 21.2 °F 69% 30.32 in 10.0 mi Calm Calm - N/A   Clear
1:10 AM 30.2 °F 26.7 °F 21.2 °F 69% 30.33 in 10.0 mi NW 3.5 mph - N/A   Clear
1:30 AM 30.2 °F 26.7 °F 21.2 °F 69% 30.33 in 10.0 mi NW 3.5 mph - N/A   Clear
1:50 AM 30.2 °F 26.7 °F 21.2 °F 69% 30.33 in 10.0 mi NW 3.5 mph - N/A   Clear
2:10 AM 30.2 °F 26.7 °F 21.2 °F 69% 30.33 in 10.0 mi NNW 3.5 mph - N/A   Clear
2:30 AM 28.4 °F 24.6 °F 21.2 °F 74% 30.34 in 10.0 mi North 3.5 mph - N/A   Clear
2:50 AM 28.4 °F - 21.2 °F 74% 30.34 in 10.0 mi Calm Calm - N/A   Clear
3:10 AM 28.4 °F 24.6 °F 21.2 °F 74% 30.34 in 10.0 mi North 3.5 mph - N/A   Clear
3:30 AM 28.4 °F - 21.2 °F 74% 30.35 in 10.0 mi Calm Calm - N/A   Clear
3:50 AM 28.4 °F - 21.2 °F 74% 30.35 in 10.0 mi Calm Calm - N/A   Clear
4:10 AM 28.4 °F - 21.2 °F 74% 30.36 in 10.0 mi Calm Calm - N/A   Clear
4:30 AM 28.4 °F - 21.2 °F 74% 30.37 in 10.0 mi Calm Calm - N/A   Clear
4:50 AM 26.6 °F - 21.2 °F 80% 30.37 in 10.0 mi Calm Calm - N/A   Clear
5:10 AM 26.6 °F - 21.2 °F 80% 30.38 in 10.0 mi Calm Calm - N/A   Clear
5:30 AM 26.6 °F - 21.2 °F 80% 30.39 in 10.0 mi Calm Calm - N/A   Clear
5:50 AM 26.6 °F - 19.4 °F 74% 30.39 in 10.0 mi Calm Calm - N/A   Clear
6:10 AM 26.6 °F - 19.4 °F 74% 30.40 in 10.0 mi Calm Calm - N/A   Clear
6:30 AM 26.6 °F - 19.4 °F 74% 30.40 in 10.0 mi Calm Calm - N/A   Clear
6:50 AM 26.6 °F - 17.6 °F 69% 30.42 in 10.0 mi Calm Calm - N/A   Clear
7:10 AM 28.4 °F - 19.4 °F 69% 30.43 in 10.0 mi Calm Calm - N/A   Clear
7:30 AM 28.4 °F 23.3 °F 19.4 °F 69% 30.44 in 10.0 mi NE 4.6 mph - N/A   Clear
7:50 AM 28.4 °F - 17.6 °F 64% 30.45 in 10.0 mi Calm Calm - N/A   Clear
8:10 AM 30.2 °F 26.7 °F 17.6 °F 60% 30.46 in 10.0 mi NE 3.5 mph - N/A   Clear
8:30 AM 30.2 °F 26.7 °F 19.4 °F 64% 30.47 in 10.0 mi ENE 3.5 mph - N/A   Clear
8:50 AM 30.2 °F 24.3 °F 19.4 °F 64% 30.47 in 10.0 mi NE 5.8 mph - N/A   Clear
9:10 AM 32.0 °F 27.5 °F 19.4 °F 60% 30.47 in 10.0 mi NE 4.6 mph - N/A   Clear
9:30 AM 32.0 °F 28.7 °F 19.4 °F 60% 30.48 in 10.0 mi NNE 3.5 mph - N/A   Clear
9:50 AM 32.0 °F 25.6 °F 21.2 °F 64% 30.48 in 10.0 mi North 6.9 mph - N/A   Clear
10:10 AM 32.0 °F 26.4 °F 21.2 °F 64% 30.48 in 10.0 mi North 5.8 mph - N/A   Clear
10:30 AM 33.8 °F 29.6 °F 19.4 °F 56% 30.49 in 10.0 mi West 4.6 mph - N/A   Clear
10:50 AM 33.8 °F 30.8 °F 17.6 °F 52% 30.48 in 10.0 mi West 3.5 mph - N/A   Clear
11:10 AM 35.6 °F 30.7 °F 19.4 °F 52% 30.48 in 10.0 mi NNW 5.8 mph - N/A   Clear
11:30 AM 35.6 °F 30.7 °F 15.8 °F 44% 30.48 in 10.0 mi NNE 5.8 mph - N/A   Clear
11:50 AM 37.4 °F 32.8 °F 15.8 °F 41% 30.48 in 10.0 mi North 5.8 mph - N/A   Clear
12:10 PM 37.4 °F 33.8 °F 14.0 °F 38% 30.48 in 10.0 mi NW 4.6 mph - N/A   Clear
12:30 PM 37.4 °F - 15.8 °F 41% 30.47 in 10.0 mi Calm Calm - N/A   Clear
12:50 PM 41.0 °F - 17.6 °F 39% 30.47 in 10.0 mi Calm Calm - N/A   Clear
1:10 PM 41.0 °F - 15.8 °F 36% 30.46 in 10.0 mi Calm Calm - N/A   Clear
1:30 PM 41.0 °F 39.0 °F 17.6 °F 39% 30.46 in 10.0 mi North 3.5 mph - N/A   Clear
1:50 PM 42.8 °F 40.1 °F 17.6 °F 36% 30.45 in 10.0 mi NNW 4.6 mph - N/A   Clear
2:10 PM 44.6 °F 41.4 °F 15.8 °F 31% 30.45 in 10.0 mi East 5.8 mph - N/A   Clear
2:30 PM 44.6 °F 41.4 °F 14.0 °F 29% 30.45 in 10.0 mi SSE 5.8 mph - N/A   Clear
2:50 PM 44.6 °F - 14.0 °F 29% 30.43 in 10.0 mi Calm Calm - N/A   Clear
3:10 PM 44.6 °F 43.1 °F 14.0 °F 29% 30.43 in 10.0 mi NNE 3.5 mph - N/A   Clear
3:30 PM 46.4 °F 44.3 °F 14.0 °F 27% 30.42 in 10.0 mi ESE 4.6 mph - N/A   Clear
3:50 PM 46.4 °F 43.5 °F 17.6 °F 32% 30.42 in 10.0 mi East 5.8 mph - N/A   Clear
4:10 PM 46.4 °F 41.9 °F 17.6 °F 32% 30.41 in 10.0 mi SE 9.2 mph - N/A   Clear
4:30 PM 46.4 °F 42.9 °F 19.4 °F 34% 30.40 in 10.0 mi SE 6.9 mph - N/A   Clear
4:50 PM 46.4 °F 41.5 °F 17.6 °F 32% 30.40 in 10.0 mi East 10.4 mph - N/A   Clear
5:10 PM 44.6 °F 38.8 °F 17.6 °F 34% 30.41 in 10.0 mi East 11.5 mph - N/A   Clear
5:30 PM 44.6 °F 39.7 °F 17.6 °F 34% 30.41 in 10.0 mi ESE 9.2 mph - N/A   Clear
5:50 PM 44.6 °F 39.2 °F 17.6 °F 34% 30.41 in 10.0 mi ESE 10.4 mph - N/A   Clear
6:10 PM 42.8 °F 36.2 °F 14.0 °F 31% 30.42 in 10.0 mi ESE 12.7 mph 16.1 mph N/A   Clear
6:30 PM 42.8 °F 36.6 °F 14.0 °F 31% 30.42 in 10.0 mi ESE 11.5 mph - N/A   Clear
6:50 PM 42.8 °F 36.6 °F 14.0 °F 31% 30.42 in 10.0 mi ESE 11.5 mph - N/A   Clear
7:10 PM 42.8 °F 37.0 °F 14.0 °F 31% 30.41 in 10.0 mi ESE 10.4 mph - N/A   Clear
7:30 PM 41.0 °F 33.9 °F 14.0 °F 33% 30.42 in 10.0 mi ESE 12.7 mph 18.4 mph N/A   Clear
7:50 PM 41.0 °F 34.3 °F 14.0 °F 33% 30.42 in 10.0 mi ESE 11.5 mph - N/A   Clear
8:10 PM 39.2 °F 30.5 °F 14.0 °F 36% 30.42 in 10.0 mi ESE 16.1 mph 19.6 mph N/A   Clear
8:30 PM 39.2 °F 30.5 °F 17.6 °F 42% 30.42 in 10.0 mi ESE 16.1 mph 23.0 mph N/A   Clear
8:50 PM 37.4 °F 27.2 °F 19.4 °F 48% 30.43 in 10.0 mi ESE 19.6 mph 24.2 mph N/A   Clear
9:10 PM 37.4 °F 27.5 °F 19.4 °F 48% 30.43 in 10.0 mi ESE 18.4 mph - N/A   Clear
9:35 PM 35.6 °F 26.2 °F 21.2 °F 56% 30.44 in 10.0 mi ESE 15.0 mph 23.0 mph N/A   Clear
9:55 PM 35.6 °F 25.9 °F 19.4 °F 52% 30.44 in 10.0 mi ESE 16.1 mph 23.0 mph N/A   Clear
10:15 PM 35.6 °F 25.9 °F 19.4 °F 52% 30.45 in 10.0 mi ESE 16.1 mph - N/A   Clear
10:35 PM 35.6 °F 25.9 °F 19.4 °F 52% 30.45 in 10.0 mi ESE 16.1 mph 19.6 mph N/A   Clear
10:55 PM 35.6 °F 25.9 °F 19.4 °F 52% 30.44 in 10.0 mi ESE 16.1 mph - N/A   Clear
11:15 PM 35.6 °F 25.9 °F 19.4 °F 52% 30.44 in 10.0 mi ESE 16.1 mph - N/A   Clear
11:35 PM 35.6 °F 25.9 °F 21.2 °F 56% 30.44 in 10.0 mi ESE 16.1 mph 20.7 mph N/A   Clear
11:55 PM 35.6 °F 26.6 °F 21.2 °F 56% 30.44 in 10.0 mi SE 13.8 mph 21.9 mph N/A   Scattered Clouds